Location: Aghk�ilisa
(40.0189°N, 45.0097°E)
Time: 20:29:00
(UTC+00:00)

Cosmos 2297 - Pass Details

Date: 21 October 2019
Orbit: 834 x 860 km, 71.0° (Epoch: 20 November)

Event Time Altitude Azimuth Distance (km) Brightness Sun altitude
Rises 15:15:26 0° 179° (S) 3,387 6.9 -12.7°
Reaches altitude 10° 15:18:00 10° 171° (S) 2,461 6.1 -13.2°
Maximum altitude 15:23:11 38° 105° (ESE) 1,275 4.2 -14.2°
Drops below altitude 10° 15:28:25 10° 39° (NE) 2,491 5.8 -15.2°
Enters shadow 15:29:26 - 35° (NE) 2,853 6.1 -15.4°
